Stations météo

Publicité
Winterbourne No 2, Grande-Bretagne (99062): Température de l'air & dewpoint: 02.12.2019 23:00:00 - 08.12.2019 23:00:00 (GMT)Winterbourne No 2, Grande-Bretagne (99062): Température de l'air -20cm & Température de l'air -100cm: 02.12.2019 23:00:00 - 08.12.2019 23:00:00 (GMT)Winterbourne No 2, Grande-Bretagne (99062): Quantités de précipitations: 02.12.2019 23:00:00 - 08.12.2019 23:00:00 (GMT)
Date & Time tt [°C] td [°C] tt -20cm [°C] tt -100cm [°C] rr [mm]
08.12.2019 23:00:00 - - - - -
08.12.2019 22:00:00 5,5 2,7 - - 0,0
08.12.2019 21:00:00 5,5 2,2 - - 0,0
08.12.2019 20:00:00 6,0 1,5 - - 0,0
08.12.2019 19:00:00 5,9 2,1 - - 0,0
08.12.2019 18:00:00 6,0 1,7 - - 0,0
08.12.2019 17:00:00 5,9 3,1 - - 0,2
08.12.2019 16:00:00 6,5 2,1 - - 0,0
08.12.2019 15:00:00 6,4 2,8 - - 0,2
08.12.2019 14:00:00 8,6 2,3 - - 0,0
08.12.2019 13:00:00 8,7 2,3 - - 0,0
08.12.2019 12:00:00 7,4 2,7 - - 0,2
08.12.2019 11:00:00 8,8 3,4 - - 0,0
08.12.2019 10:00:00 8,1 3,6 - - 0,0
08.12.2019 09:00:00 7,5 3,1 7,0 8,0 0,0
08.12.2019 08:00:00 7,2 3,9 - - 0,0
08.12.2019 07:00:00 8,8 4,6 - - 0,0
08.12.2019 06:00:00 9,4 4,6 - - 0,0
08.12.2019 05:00:00 9,7 4,5 - - 0,0
08.12.2019 04:00:00 11,0 9,7 - - 0,4
08.12.2019 03:00:00 9,9 9,4 - - 0,0
08.12.2019 02:00:00 9,5 8,8 - - 0,0
08.12.2019 01:00:00 9,1 8,4 - - 2,0
08.12.2019 00:00:00 9,2 8,0 - - 0,2
07.12.2019 23:00:00 9,1 7,4 - - 0,0
07.12.2019 22:00:00 8,8 7,2 - - 0,0
07.12.2019 21:00:00 8,9 7,3 - - 0,0
07.12.2019 20:00:00 8,8 7,4 - - 0,0
07.12.2019 19:00:00 8,5 7,3 - - 0,0
07.12.2019 18:00:00 8,2 6,5 - - 0,0
07.12.2019 17:00:00 8,6 6,6 - - 0,0
07.12.2019 16:00:00 9,0 5,9 - - 0,0
07.12.2019 15:00:00 9,4 6,0 - - 0,0
07.12.2019 14:00:00 10,2 5,8 - - 0,0
07.12.2019 13:00:00 9,7 5,4 - - 0,0
07.12.2019 12:00:00 9,5 5,6 - - 0,0
07.12.2019 11:00:00 9,0 5,8 - - 0,0
07.12.2019 10:00:00 8,4 5,9 - - 0,0
07.12.2019 09:00:00 8,2 5,8 6,7 7,9 0,0
07.12.2019 08:00:00 7,8 5,6 - - 0,0
07.12.2019 07:00:00 7,9 5,6 - - 0,0
07.12.2019 06:00:00 8,0 5,6 - - 0,0
07.12.2019 05:00:00 7,8 5,5 - - 0,0
07.12.2019 04:00:00 8,1 5,8 - - 0,0
07.12.2019 03:00:00 8,2 5,9 - - 0,0
07.12.2019 02:00:00 8,5 5,8 - - 0,0
07.12.2019 01:00:00 8,5 5,6 - - 0,0
07.12.2019 00:00:00 8,6 5,6 - - 0,0
06.12.2019 23:00:00 8,6 5,8 - - 0,0
06.12.2019 22:00:00 8,3 5,9 - - 0,0
06.12.2019 21:00:00 8,3 5,8 - - 0,0
06.12.2019 20:00:00 8,4 6,0 - - 0,0
06.12.2019 19:00:00 8,7 5,8 - - 0,0
06.12.2019 18:00:00 9,1 6,1 - - 0,0
06.12.2019 17:00:00 9,1 6,7 - - 0,0
06.12.2019 16:00:00 9,5 7,0 - - 0,2
06.12.2019 15:00:00 9,7 8,6 - - 1,2
06.12.2019 14:00:00 9,9 9,0 - - 2,0
06.12.2019 13:00:00 11,4 8,5 - - 0,0
06.12.2019 12:00:00 10,8 9,8 - - 0,4
06.12.2019 11:00:00 11,4 9,6 - - 0,0
06.12.2019 10:00:00 11,4 10,0 - - 0,0
06.12.2019 09:00:00 10,9 10,3 6,0 8,0 0,2
06.12.2019 08:00:00 10,6 10,2 - - 0,0
06.12.2019 07:00:00 10,5 10,0 - - 0,4
06.12.2019 06:00:00 10,5 10,0 - - 2,8
06.12.2019 05:00:00 10,5 9,9 - - 1,0
06.12.2019 04:00:00 10,8 9,6 - - 0,0
06.12.2019 03:00:00 11,0 9,0 - - 0,0
06.12.2019 02:00:00 11,3 8,9 - - 0,0
06.12.2019 01:00:00 10,8 9,1 - - 0,0
06.12.2019 00:00:00 9,5 8,5 - - 0,0
05.12.2019 23:00:00 9,6 8,3 - - 0,0
05.12.2019 22:00:00 9,6 8,1 - - 0,0
05.12.2019 21:00:00 8,8 7,4 - - 0,0
05.12.2019 20:00:00 9,1 7,1 - - 0,0
05.12.2019 19:00:00 8,8 6,6 - - 0,0
05.12.2019 18:00:00 8,5 6,2 - - 0,0
05.12.2019 17:00:00 8,3 5,9 - - 0,0
05.12.2019 16:00:00 7,9 5,8 - - 0,0
05.12.2019 15:00:00 7,6 5,9 - - 0,0
05.12.2019 14:00:00 6,8 5,6 - - 0,0
05.12.2019 13:00:00 6,6 5,4 - - 0,0
05.12.2019 12:00:00 6,1 4,9 - - 0,0
05.12.2019 11:00:00 5,7 4,4 - - 0,0
05.12.2019 10:00:00 4,3 4,3 - - 0,0
05.12.2019 09:00:00 1,9 1,9 4,9 8,2 0,0
05.12.2019 08:00:00 1,4 1,2 - - 0,0
05.12.2019 07:00:00 2,6 2,6 - - 0,0
05.12.2019 06:00:00 2,6 2,5 - - 0,2
05.12.2019 05:00:00 2,4 2,0 - - 0,0
05.12.2019 04:00:00 3,7 3,3 - - 0,0
05.12.2019 03:00:00 3,8 3,2 - - 0,0
05.12.2019 02:00:00 3,6 3,0 - - 0,0
05.12.2019 01:00:00 3,7 3,5 - - 0,0
05.12.2019 00:00:00 2,7 2,7 - - 0,0
04.12.2019 23:00:00 1,3 0,9 - - 0,0
04.12.2019 22:00:00 2,3 1,9 - - 0,0
04.12.2019 21:00:00 2,5 2,1 - - 0,0
04.12.2019 20:00:00 2,7 2,4 - - 0,0
04.12.2019 19:00:00 2,7 2,3 - - 0,0
04.12.2019 18:00:00 2,9 1,7 - - 0,0
04.12.2019 17:00:00 4,3 3,0 - - 0,0
04.12.2019 16:00:00 5,3 2,9 - - 0,0
04.12.2019 15:00:00 6,3 3,2 - - 0,0
04.12.2019 14:00:00 7,5 3,1 - - 0,0
04.12.2019 13:00:00 7,3 3,1 - - 0,0
04.12.2019 12:00:00 7,0 3,9 - - 0,0
04.12.2019 11:00:00 5,1 4,5 - - 0,0
04.12.2019 10:00:00 3,0 3,0 - - 0,0
04.12.2019 09:00:00 1,3 1,3 5,2 8,4 0,0
04.12.2019 08:00:00 0,6 0,6 - - 0,0
04.12.2019 07:00:00 0,1 0,1 - - 0,0
04.12.2019 06:00:00 -0,4 -0,5 - - 0,0
04.12.2019 05:00:00 0,1 -0,1 - - 0,0
04.12.2019 04:00:00 0,5 0,2 - - 0,0
04.12.2019 03:00:00 1,2 1,1 - - 0,0
04.12.2019 02:00:00 1,9 1,6 - - 0,0
04.12.2019 01:00:00 1,7 1,2 - - 0,0
04.12.2019 00:00:00 2,0 1,3 - - 0,0
03.12.2019 23:00:00 3,2 2,7 - - 0,0
03.12.2019 22:00:00 2,2 2,0 - - 0,0
03.12.2019 21:00:00 2,1 1,7 - - 0,0
03.12.2019 20:00:00 3,2 2,9 - - 0,0
03.12.2019 19:00:00 3,2 2,5 - - 0,0
03.12.2019 18:00:00 4,2 3,4 - - 0,0
03.12.2019 17:00:00 5,2 3,9 - - 0,0
03.12.2019 16:00:00 6,0 3,9 - - 0,0
03.12.2019 15:00:00 6,9 4,0 - - 0,0
03.12.2019 14:00:00 7,8 3,6 - - 0,0
03.12.2019 13:00:00 7,5 3,5 - - 0,0
03.12.2019 12:00:00 7,1 3,5 - - 0,0
03.12.2019 11:00:00 5,7 3,6 - - 0,0
03.12.2019 10:00:00 4,1 3,6 - - 0,0
03.12.2019 09:00:00 3,0 2,6 5,5 8,7 0,0
03.12.2019 08:00:00 2,3 1,9 - - 0,0
03.12.2019 07:00:00 2,5 2,0 - - 0,0
03.12.2019 06:00:00 3,1 2,2 - - 0,0
03.12.2019 05:00:00 4,3 2,9 - - 0,0
03.12.2019 04:00:00 4,6 3,2 - - 0,0
03.12.2019 03:00:00 3,8 2,4 - - 0,0
03.12.2019 02:00:00 4,2 2,5 - - 0,0
03.12.2019 01:00:00 4,1 2,5 - - 0,0
03.12.2019 00:00:00 4,0 2,4 - - 0,0
02.12.2019 23:00:00 3,9 2,2 - - 0,0

tt = Température de l'air
td = dewpoint
tt -20cm = Température de l'air -20cm
tt -100cm = Température de l'air -100cm
rr = Quantités de précipitations

stations d'obs. à proximité